Tracking 30995 objects as of 7-Jul-2025
HD Live streaming from Space Station
objects crossing your sky now

STARLINK-5651

Track STARLINK-5651 now!
10-day predictions
STARLINK-5651 is classified as:


NORAD ID: 55357
Int'l Code: 2023-013AC
Perigee: 565.2 km
Apogee: 567.2 km
Inclination: 43.0 °
Period: 95.8 minutes
Semi major axis: 6937 km
RCS: Unknown
Launch date: January 26, 2023
Source: United States (US)
Launch site: AIR FORCE EASTERN TEST RANGE (AFETR)
Your satellite tracking list
TITAN 34B AGENA D DEB
Track 1 satellite(s)




NASA's NSSDC Master Catalog

Two Line Element Set (TLE):
1 55357U 23013AC  25187.52732436  .00000485  00000-0  50946-4 0  9994
2 55357  43.0026 197.6090 0001459 278.8088  81.2589 15.02539948134685
Source of the keplerian elements: AFSPC